LogoCoinalyze
    Ad-Free Version Home Markten Financieringspercentages
    Futures data
    • Aggregated data (Munten)
    • Individuele grafieken
    • Globale grafieken
    Meldingen
    TA
    Bitcoin Ethereum BNB Ripple Tron Dogecoin ZCash Monero UNUS SED LEO Chainlink Cardano Stellar Lumens Bitcoin Cash Litecoin Hedera Cronos Polkadot Ethereum Classic Algorand Cosmos Quant VeChain Dash Bitcoin SV BitTorrent Terra Tezos Decred Iota The Graph THETA MultiversX Decentraland NEO Chiliz Golem Basic Attention Token Horizen Qtum DigiByte 0x Beam RIF Token FTX Token Holo FUNToken aelf Zilliqa Ontology Nano Enjin Coin Ravencoin Mask Network Verge Siacoin Status WINk Waves IoTeX iExec RLC Power Ledger Steem Kyber Network Crystal Lisk Ark Ardor WOO Network IOST WAX Icon Storj Loopring Wanchain Bitcoin Diamond Augur AdEx Bitcoin Gold OmiseGO NEM MonaCoin BitShares Ren Komodo V Systems Nuls Mithril SOLVE Maker EOS Aion Nebulas HedgeTrade Bread Fetch.ai TomoChain Polygon Fantom Waltonchain GXChain Bytom Metaverse ETP MaidSafeCoin QASH
    Rangschikken op:
    Meer
    • API
    • Candlestick-patronen
    • Doneer
    • Contact
    • Sitemap
    • Privacy Policy
    • Disclaimer
    • Theme:
    Nederlands
    • English
    • Français
    • Русский
    • Deutsch
    • Türkçe
    • Português (BR)
    • Español
    • 한국어
    • 简体中文
    • 日本語
     
    Aanmelden / Registreren
    Markets/ Pepe/ PEPE naar USDC/ PEPEUSDC Binance
    Trades
    WL
    Chat
    Stats
    Nieuws
    ⦷
    AAA
    0.00000348 461491.00000000 11:51:47
    0.00000348 987528.00000000 11:48:28
    0.00000348 987528.00000000 11:48:10
    0.00000348 430417.00000000 11:48:10
    0.00000348 27084339.00000000 11:48:00
    0.00000348 5098140.00000000 11:46:48
    0.00000348 985402.00000000 11:44:32
    0.00000348 159078847.00000000 11:44:21
    0.00000348 17580832.00000000 11:44:21
    0.00000348 14049988.00000000 11:44:21
    0.00000348 10548499.00000000 11:44:21
    0.00000348 316091.00000000 11:44:20
    0.00000348 2635632.00000000 11:44:18
    0.00000348 26100000.00000000 11:44:17
    0.00000349 1949009.00000000 11:42:52
    0.00000348 1652646025.00000000 11:42:15
    0.00000348 47423514.00000000 11:42:05
    0.00000348 446488139.00000000 11:41:42
    0.00000348 4306480.00000000 11:41:33
    0.00000348 935081131.00000000 11:40:39
    0.00000348 987528.00000000 11:40:33
    0.00000348 113062500.00000000 11:39:58
    0.00000348 241886132.00000000 11:39:52
    0.00000348 241813868.00000000 11:39:47
    0.00000348 432276661.00000000 11:39:46
    0.00000348 984339.00000000 11:39:42
    0.00000348 1181507.00000000 11:38:55
    0.00000347 893041.00000000 11:38:55
    0.00000348 29064808.00000000 11:38:32
    0.00000348 987528.00000000 11:38:23
    0.00000348 280007912.00000000 11:38:19
    0.00000348 124943383.00000000 11:38:14
    0.00000348 862068965.00000000 11:37:08
    0.00000348 984339.00000000 11:36:37
    0.00000347 3230196.00000000 11:35:46
    0.00000348 255384721.00000000 11:35:38
    0.00000348 80359815.00000000 11:35:38
    0.00000349 364056.00000000 11:34:52
    0.00000348 987528.00000000 11:32:53
    0.00000348 113062500.00000000 11:32:46
    0.00000348 352868864.00000000 11:32:28
    0.00000347 17385165.00000000 11:29:33
    0.00000347 2830501.00000000 11:28:53
    0.00000347 2830501.00000000 11:28:53
    0.00000347 1851473.00000000 11:26:52
    0.00000347 317719595.00000000 11:26:25
    0.00000347 1982509.00000000 11:26:21
    0.00000347 4100983.00000000 11:26:04
    0.00000346 10000000.00000000 11:25:24
    0.00000346 374916.00000000 11:22:52
    0.00000347 990738.00000000 11:20:54
    0.00000347 290457400.00000000 11:20:14
    0.00000347 1926394.00000000 11:19:52
    0.00000347 676786.00000000 11:19:21
    0.00000347 640988.00000000 11:18:52
    0.00000347 988598.00000000 11:16:42
    0.00000347 11807292.00000000 11:16:33
    0.00000347 309799343.00000000 11:16:33
    0.00000346 289017341.00000000 11:16:32
    0.00000346 3637807.00000000 11:14:52
    0.00000346 98684061.00000000 11:13:20
    0.00000346 3943653.00000000 11:12:53
    0.00000346 1280360.00000000 11:11:23
    0.00000346 2877337.00000000 11:10:58
    0.00000346 216288800.00000000 11:08:23
    0.00000345 7557313.00000000 11:08:02
    0.00000346 993969.00000000 11:07:42
    0.00000346 432901.00000000 11:07:42
    0.00000346 27090738.00000000 11:07:24
    0.00000346 331323.00000000 11:07:20
    0.00000346 1901231.00000000 11:07:09
    0.00000346 990738.00000000 11:06:39
    0.00000346 55333057.00000000 11:06:29
    0.00000346 330259.00000000 11:04:46
    0.00000346 193831500.00000000 11:04:46
    0.00000346 248184891.00000000 11:03:32
    0.00000346 26100000.00000000 11:03:32
    0.00000346 432901.00000000 11:03:32
    0.00000346 432901.00000000 11:03:32
    0.00000346 14457240.00000000 11:03:32
    0.00000346 187328869.00000000 11:03:29
    0.00000346 105622840.00000000 11:03:29
    0.00000346 595564.00000000 11:02:52
    0.00000347 736361.00000000 11:02:52
    0.00000347 1521116.00000000 11:02:18
    0.00000346 1744694.00000000 11:02:07
    0.00000347 408906.00000000 11:01:37
    0.00000346 3340519084.00000000 11:01:13
    0.00000346 817843.00000000 11:01:09
    0.00000345 3313900.00000000 11:01:05
    0.00000346 660520.00000000 11:01:05
    0.00000346 161935300.00000000 11:01:04
    0.00000346 331323.00000000 11:00:48
    0.00000346 636759.00000000 11:00:31
    0.00000346 331323.00000000 11:00:21
    0.00000346 330246.00000000 10:58:54
    0.00000347 3196919.00000000 10:58:51
    0.00000346 7682042.00000000 10:58:49
    0.00000346 2281100.00000000 10:58:02
    0.00000346 299558900.00000000 10:58:02
    Afmelden
    AAA
    Help
    🙂 🤣 😎 🤗 😛 😉 😜 🤑 🤔 😑 😴 😕 🙃 😲 😇 🙁 😢 😬 😟 😠 🕺 🏃 💪 ✌ 👌 👍 👎 👏 👋 🤝 🍺 🍻 🐋 🐟 🦈 🗽 🚄 ✈ 🛑 🚀 🏦 🌚 ⭐ 🌞 ⚡ 🏆 💰 💲 🔨 ❓ ❗ 💯 🔶 🏁
    ☺
    Aanmelden of Registreren en chat
    24 Uur
    Verandering
    +2.35%
    Volume
    458,654,060,752
    Hoog
    0.00000350
    Laag
    0.00000336
    7 Dagen
    Verandering
    -9.61%
    Volume
    3,433,874,849,601
    Hoog
    0.00000401
    Laag
    0.00000336
    30 Dagen
    Verandering
    +19.59%
    Volume
    18,469,954,593,414
    Hoog
    0.00000455
    Laag
    0.00000252
    DOGE, SHIB, PEPE, or Something Else: Which Meme Coin Can Make History in September? (3 AIs Weigh In)
    "DOGE remains the most likely to record the largest move in dollar terms and lead the entire sector," ChatGPT stated.
    cryptopotato.com
    Sept 3, 2026 00:41
    Pepe price rallies 25% as whale demand and futures interest surge
    Key takeaways Pepe has gained 25% this week, including a combined 22% advance over the previous two days. Seven whale transactions worth more than $1 million each occurred Thursday, the highest...
    coinjournal.net
    Aug 21, 2026 08:41
    PEPE Supply on Exchanges Just Took a Massive Hit – What’s Next?
    A drop in PEPE exchange balances has added to bullish expectations despite muted trader interest.
    cryptopotato.com
    Aug 6, 2026 20:02
    PEPE Exchange Outflows Hit Nearly 2-Year High as Whales Accumulate
    Pepe (PEPE) recorded its largest single-day exchange outflow since November 2024, with 4.54 trillion tokens leaving trading platforms, signaling that holders are moving supply away from immediate...
    beincrypto.com
    Aug 6, 2026 04:57
    Meme Coin Based on White House Shooter Conspiracy Rallies 320%
    $HENRY surged 300% after a 2023 Pepe tweet appeared to name the White House shooter, fueling a viral time-travel meme. The post Meme Coin Based on White House Shooter Conspiracy Rallies 320%...
    beincrypto.com
    Apr 27, 2026 16:11
    PEPE surges 4% as market sentiment improves, eyes Key resistance breakout
    Key takeaways Pepe extends gains on Wednesday, stretching its rally from the 50-day EMA. Derivatives data show heightened retail activity as risk-on sentiment returns to the market. Pepe (PEPE) is...
    coinjournal.net
    Apr 22, 2026 11:44
    Why The PEPE Price Could Stage A 55X Rally To Reach New $0.0001 ATH
    The PEPE price has now started to edge back into bullish conversations after the recent inflows into the crypto market. The last time PEPE’s weekly chart printed the kind of structure now...
    newsbtc.com
    Apr 21, 2026 15:30
    Pepe (PEPE) surges 9%, drawing interest from whales
    Key takeaways PEPE is up 9% in the last 24 hours, making it one of the best performers among the top 50 cryptocurrencies by market cap. The rally comes amid renewed interest from whales and retail...
    coinjournal.net
    Apr 16, 2026 07:40
    Murad Says SPX6900 (SPX) Is Primed for a Rally — Is He Right This Time?
    Crypto influencer Murad Mahmudov claims SPX6900 (SPX) is stabilizing at the same market cap level where Dogecoin (DOGE) and Pepe (PEPE) consolidated before their explosive rallies. The...
    beincrypto.com
    Apr 5, 2026 21:36
    The Shiba Inu Of This Cycle: Analyst Shares Why It Is Better To Buy PEPE Now
    In the bull market cycle of 2021-2022, the Shiba Inu meme coin made waves in a way that changed the face of meme coins forever. This came after Dogecoin’s initial 36,000% rally, and Shiba Inu...
    newsbtc.com
    Apr 4, 2026 07:30
    PEPE Explodes by 18% Amid Altcoin Rally, BTC Tapped $74K: Market Watch
    The frog-themed meme coin is today's biggest gainer, followed by TAO, DOT, and BONK.
    cryptopotato.com
    Mar 16, 2026 10:56
    Should PEPE traders brace for volatility as short squeeze potential builds?
    The memecoin market has seen its collective market capitalization drop by 48% over the past year, and 6.9% over the past month, according to CoinMarketCap. According to Glassnode, the memecoin...
    ambcrypto.com
    Mar 7, 2026 18:00
    Typ de opdracht simpelweg in de chat. Vervang nick1 door de echte nick
    • /ignore nick1 Negeer een chatgebruiker
    • /unignore nick1 Een chatgebruiker niet meer negeren
    • /ignorelist Toon chatgebruikers die je negeert